• Em Portugal
  • Lista de países
  • Para 7 dias
  • Temperatura da água
  • Mapas de satélite
  • Mapa do tempo
  • Widgets de tempo
  • user-avatar
    Iniciar Sessão

    Previsão horária em Choybalsan

    Hoje, 23 Outubro, Segunda-feira

    Tempo Temperatura Precipitação Vento Pressão Humidade
    00:00 +1°C° 0 mm 2 m/s 700 mmHg 80%
    01:00 +1°C° 0 mm 2 m/s 699 mmHg 81%
    02:00 -1°C° 0 mm 3 m/s 699 mmHg 81%
    03:00 -1°C° 0 mm 3 m/s 699 mmHg 82%
    04:00 -1°C° 0 mm 3 m/s 699 mmHg 83%
    05:00 -1°C° 0 mm 3 m/s 699 mmHg 83%
    06:00 0°C° 0 mm 3 m/s 699 mmHg 82%
    07:00 0°C° 0 mm 3 m/s 699 mmHg 81%
    08:00 0°C° 0 mm 3 m/s 699 mmHg 77%
    09:00 +1°C° 0 mm 4 m/s 698 mmHg 69%
    10:00 +3°C° 0 mm 5 m/s 698 mmHg 60%
    11:00 +5°C° 0 mm 6 m/s 698 mmHg 52%
    12:00 +7°C° 0 mm 6 m/s 697 mmHg 49%
    13:00 +8°C° 0 mm 6 m/s 696 mmHg 46%
    14:00 +9°C° 0 mm 6 m/s 696 mmHg 43%
    15:00 +8°C° 0 mm 6 m/s 695 mmHg 47%
    16:00 +7°C° 0 mm 5 m/s 695 mmHg 50%
    17:00 +6°C° 0 mm 5 m/s 694 mmHg 54%
    18:00 +6°C° 0 mm 5 m/s 694 mmHg 55%
    19:00 +4°C° 0 mm 6 m/s 694 mmHg 57%
    20:00 +4°C° 0 mm 6 m/s 694 mmHg 58%
    21:00 +4°C° 0 mm 6 m/s 694 mmHg 58%
    22:00 +3°C° 0 mm 6 m/s 694 mmHg 58%
    23:00 +3°C° 0 mm 6 m/s 694 mmHg 58%

    Amanhã, 24 Outubro, Terça-feira

    Tempo Temperatura Precipitação Vento Pressão Humidade
    00:00 +3°C° 0 mm 5 m/s 694 mmHg 59%
    01:00 +2°C° 0 mm 5 m/s 694 mmHg 61%
    02:00 +3°C° 0 mm 4 m/s 694 mmHg 62%
    03:00 +1°C° 0 mm 4 m/s 695 mmHg 64%
    04:00 +1°C° 0 mm 4 m/s 695 mmHg 65%
    05:00 +2°C° 0 mm 3 m/s 695 mmHg 66%
    06:00 +2°C° 0 mm 3 m/s 695 mmHg 66%
    07:00 +2°C° 0 mm 3 m/s 696 mmHg 66%
    08:00 +2°C° 0 mm 3 m/s 697 mmHg 65%
    09:00 +4°C° 0 mm 3 m/s 697 mmHg 61%
    10:00 +5°C° 0 mm 3 m/s 698 mmHg 57%
    11:00 +7°C° 0 mm 4 m/s 698 mmHg 52%
    12:00 +7°C° 0 mm 4 m/s 698 mmHg 50%
    13:00 +9°C° 0 mm 3 m/s 698 mmHg 48%
    14:00 +10°C° 0 mm 3 m/s 698 mmHg 46%
    15:00 +9°C° 0 mm 2 m/s 698 mmHg 50%
    16:00 +8°C° 0 mm 2 m/s 698 mmHg 55%
    17:00 +7°C° 0 mm 1 m/s 698 mmHg 59%
    18:00 +7°C° 0 mm 1 m/s 698 mmHg 61%
    19:00 +6°C° 0 mm 1 m/s 698 mmHg 63%
    20:00 +4°C° 0 mm 0 m/s 699 mmHg 65%
    21:00 +5°C° 0 mm 1 m/s 699 mmHg 65%
    22:00 +5°C° 0 mm 1 m/s 699 mmHg 66%
    23:00 +4°C° 0 mm 2 m/s 699 mmHg 66%

    Depois de amanhã, 25 Outubro, Quarta-feira

    Tempo Temperatura Precipitação Vento Pressão Humidade
    00:00 +4°C° 0 mm 2 m/s 699 mmHg 67%
    01:00 +3°C° 0 mm 2 m/s 699 mmHg 69%
    02:00 +2°C° 0 mm 3 m/s 699 mmHg 70%
    03:00 +2°C° 0 mm 3 m/s 699 mmHg 71%
    04:00 +2°C° 0 mm 3 m/s 698 mmHg 73%
    05:00 +1°C° 0 mm 3 m/s 698 mmHg 74%
    06:00 +1°C° 0 mm 3 m/s 698 mmHg 75%
    07:00 +1°C° 0 mm 3 m/s 698 mmHg 75%
    08:00 +2°C° 0 mm 3 m/s 698 mmHg 75%
    09:00 +3°C° 0 mm 3 m/s 698 mmHg 69%
    10:00 +5°C° 0 mm 3 m/s 698 mmHg 62%
    11:00 +8°C° 0 mm 3 m/s 697 mmHg 56%
    12:00 +9°C° 0 mm 3 m/s 697 mmHg 52%
    13:00 +10°C° 0 mm 3 m/s 696 mmHg 48%
    14:00 +11°C° 0 mm 3 m/s 695 mmHg 44%
    15:00 +10°C° 0 mm 3 m/s 695 mmHg 47%
    16:00 +9°C° 0 mm 2 m/s 694 mmHg 51%
    17:00 +8°C° 0 mm 2 m/s 694 mmHg 55%
    18:00 +7°C° 0 mm 2 m/s 694 mmHg 57%
    19:00 +6°C° 0 mm 2 m/s 694 mmHg 58%
    20:00 +6°C° 0 mm 2 m/s 694 mmHg 60%
    21:00 +5°C° 0 mm 2 m/s 693 mmHg 61%
    22:00 +5°C° 0 mm 2 m/s 693 mmHg 63%
    23:00 +5°C° 0 mm 2 m/s 693 mmHg 64%

    26 Outubro, Quinta-feira

    Tempo Temperatura Precipitação Vento Pressão Humidade
    00:00 +4°C° 0 mm 2 m/s 693 mmHg 66%
    01:00 +4°C° 0 mm 2 m/s 693 mmHg 68%
    02:00 +4°C° 0 mm 1 m/s 692 mmHg 70%
    03:00 +4°C° 0 mm 1 m/s 692 mmHg 71%
    04:00 +4°C° 0 mm 1 m/s 692 mmHg 72%
    05:00 +3°C° 0 mm 1 m/s 691 mmHg 74%
    06:00 +4°C° 0 mm 1 m/s 692 mmHg 73%
    07:00 +4°C° 0 mm 1 m/s 692 mmHg 72%
    08:00 +4°C° 0 mm 1 m/s 692 mmHg 71%
    09:00 +6°C° 0 mm 1 m/s 692 mmHg 65%
    10:00 +7°C° 0 mm 1 m/s 692 mmHg 58%
    11:00 +8°C° 0 mm 2 m/s 692 mmHg 52%
    12:00 +9°C° 0 mm 2 m/s 691 mmHg 49%
    13:00 +9°C° 0 mm 2 m/s 691 mmHg 46%
    14:00 +10°C° 0 mm 2 m/s 690 mmHg 43%
    15:00 +9°C° 0 mm 2 m/s 690 mmHg 47%
    16:00 +8°C° 0 mm 2 m/s 689 mmHg 50%
    17:00 +7°C° 0 mm 2 m/s 689 mmHg 54%
    18:00 +7°C° 0 mm 2 m/s 689 mmHg 55%
    19:00 +5°C° 0 mm 3 m/s 689 mmHg 55%
    20:00 +5°C° 0 mm 3 m/s 688 mmHg 55%
    21:00 +5°C° 0 mm 4 m/s 688 mmHg 55%
    22:00 +4°C° 0 mm 4 m/s 688 mmHg 54%
    23:00 +4°C° 0 mm 4 m/s 687 mmHg 54%

    27 Outubro, Sexta-feira

    Tempo Temperatura Precipitação Vento Pressão Humidade
    00:00 +3°C° 0 mm 5 m/s 687 mmHg 53%
    01:00 +3°C° 0 mm 5 m/s 686 mmHg 53%
    02:00 +3°C° 0 mm 5 m/s 686 mmHg 52%
    03:00 +3°C° 0 mm 6 m/s 686 mmHg 55%
    04:00 +3°C° 0 mm 6 m/s 687 mmHg 57%
    05:00 +3°C° 0 mm 6 m/s 687 mmHg 59%
    06:00 +2°C° 0 mm 6 m/s 688 mmHg 61%
    07:00 +2°C° 0 mm 6 m/s 689 mmHg 63%
    08:00 +1°C° 0 mm 6 m/s 690 mmHg 66%
    09:00 0°C° 0 mm 7 m/s 691 mmHg 57%
    10:00 0°C° 0 mm 8 m/s 692 mmHg 49%
    11:00 -1°C° 0 mm 9 m/s 694 mmHg 40%
    12:00 0°C° 0 mm 9 m/s 694 mmHg 37%
    13:00 0°C° 0 mm 8 m/s 694 mmHg 33%
    14:00 0°C° 0 mm 8 m/s 695 mmHg 29%
    15:00 -1°C° 0 mm 7 m/s 695 mmHg 31%
    16:00 -1°C° 0 mm 6 m/s 696 mmHg 33%
    17:00 -1°C° 0 mm 4 m/s 696 mmHg 34%
    18:00 -2°C° 0 mm 4 m/s 697 mmHg 36%
    19:00 -2°C° 0 mm 4 m/s 697 mmHg 38%
    20:00 -3°C° 0 mm 4 m/s 698 mmHg 39%
    21:00 -3°C° 0 mm 4 m/s 698 mmHg 40%
    22:00 -3°C° 0 mm 4 m/s 699 mmHg 40%
    23:00 -3°C° 0 mm 4 m/s 699 mmHg 40%

    28 Outubro, Sábado

    Tempo Temperatura Precipitação Vento Pressão Humidade
    00:00 -3°C° 0 mm 4 m/s 699 mmHg 40%
    01:00 -3°C° 0 mm 4 m/s 699 mmHg 41%
    02:00 -5°C° 0 mm 5 m/s 699 mmHg 41%
    03:00 -5°C° 0 mm 5 m/s 699 mmHg 41%
    04:00 -5°C° 0 mm 5 m/s 700 mmHg 42%
    05:00 -5°C° 0 mm 6 m/s 700 mmHg 43%
    06:00 -6°C° 0 mm 6 m/s 701 mmHg 41%
    07:00 -7°C° 0 mm 7 m/s 701 mmHg 39%
    08:00 -7°C° 0 mm 8 m/s 702 mmHg 37%
    09:00 -6°C° 0 mm 8 m/s 702 mmHg 34%
    10:00 -5°C° 0 mm 8 m/s 703 mmHg 32%
    11:00 -5°C° 0 mm 8 m/s 703 mmHg 30%
    12:00 -4°C° 0 mm 8 m/s 703 mmHg 30%
    13:00 -4°C° 0 mm 8 m/s 703 mmHg 29%
    14:00 -2°C° 0 mm 7 m/s 703 mmHg 29%
    15:00 -3°C° 0 mm 6 m/s 703 mmHg 32%
    16:00 -2°C° 0 mm 5 m/s 703 mmHg 35%
    17:00 -2°C° 0 mm 3 m/s 703 mmHg 37%
    18:00 -2°C° 0 mm 3 m/s 704 mmHg 39%
    19:00 -2°C° 0 mm 3 m/s 704 mmHg 41%
    20:00 -4°C° 0 mm 3 m/s 704 mmHg 43%
    21:00 -4°C° 0 mm 3 m/s 704 mmHg 45%
    22:00 -4°C° 0 mm 3 m/s 705 mmHg 46%
    23:00 -4°C° 0 mm 3 m/s 705 mmHg 47%

    29 Outubro, Domingo

    Tempo Temperatura Precipitação Vento Pressão Humidade
    00:00 -4°C° 0 mm 3 m/s 705 mmHg 48%
    01:00 -5°C° 0 mm 3 m/s 704 mmHg 49%
    02:00 -5°C° 0 mm 3 m/s 704 mmHg 50%
    03:00 -5°C° 0 mm 3 m/s 704 mmHg 51%
    04:00 -5°C° 0 mm 3 m/s 704 mmHg 51%
    05:00 -5°C° 0 mm 3 m/s 704 mmHg 52%
    06:00 -5°C° 0 mm 4 m/s 704 mmHg 50%
    07:00 -5°C° 0 mm 4 m/s 704 mmHg 49%
    08:00 -5°C° 0 mm 4 m/s 703 mmHg 47%
    09:00 -3°C° 0 mm 4 m/s 703 mmHg 41%
    10:00 -1°C° 0 mm 5 m/s 703 mmHg 35%
    11:00 0°C° 0 mm 5 m/s 703 mmHg 28%
    12:00 +1°C° 0 mm 5 m/s 702 mmHg 28%
    13:00 +2°C° 0 mm 5 m/s 701 mmHg 27%
    14:00 +3°C° 0 mm 6 m/s 700 mmHg 26%
    15:00 +1°C° 0 mm 5 m/s 700 mmHg 30%
    16:00 0°C° 0 mm 4 m/s 699 mmHg 34%
    17:00 -1°C° 0 mm 4 m/s 699 mmHg 38%
    18:00 -1°C° 0 mm 4 m/s 699 mmHg 38%
    19:00 -2°C° 0 mm 4 m/s 698 mmHg 39%
    20:00 -2°C° 0 mm 5 m/s 698 mmHg 39%
    21:00 -2°C° 0 mm 5 m/s 698 mmHg 39%
    22:00 -2°C° 0 mm 5 m/s 697 mmHg 39%
    23:00 -4°C° 0 mm 5 m/s 697 mmHg 38%
    Mostrar mais